CAPE
611 415 413 342 84 6 522 880 849 799 626 801 784 635 611 685 851 786 816 843 1101 1136 836 578 858 266 2 0 0 0 5 446 641
577 435 422 96 67 73 623 902 1029 1113 1180 962 420 275 857 853 525 966 1344 1122 1073 1123 808 144 68 0 0 0 0 0 0 38 590
455 429 478 274 194 501 855 912 901 890 1032 983 543 145 88 196 954 695 877 1513 1884 1544 1200 633 6 0 5 3 0 0 0 0 380
1170 1381 962 298 330 663 919 1004 812 647 556 46 71 0 0 67 1313 911 772 886 991 1428 1444 619 0 7 90 10 0 0 0 49 275
1493 1187 638 470 569 606 780 852 763 645 173 227 15 0 17 130 1256 1997 1517 1290 1162 1072 1162 1117 109 69 48 0 0 0 75 277 497
1478 1033 591 474 324 169 161 222 230 282 0 0 0 0 0 0 584 2321 2190 2100 1989 2046 1858 1445 529 178 226 7 0 10 120 217 469
1496 953 576 433 297 115 67 73 131 169 172 0 0 0 130 310 1518 2545 2511 2486 2486 2486 2303 1835 1143 627 379 119 41 7 89 192 323
1417 1114 619 451 399 213 37 26 22 25 130 356 190 58 68 394 1216 2252 2422 2476 2399 2475 2035 1283 897 745 335 47 111 57 37 81 157
1601 1463 1345 1180 756 416 195 83 204 573 530 745 1069 1622 1797 1933 1604 1776 2018 2266 2040 1932 1615 1014 289 154 314 144 18 11 0 129 152
1976 2200 2193 2066 1800 1494 1336 1301 1477 1553 1568 1558 1396 1582 2194 2676 2474 2049 1779 1697 1567 1281 1061 1105 805 320 129 98 84 103 169 248 81
1219 1164 1152 1135 959 956 930 1166 1622 1411 1353 1641 1629 1824 2005 2013 2264 2460 1686 1697 1782 2041 1482 1316 1170 1137 949 775 576 375 116 0 0
572 1022 726 358 279 362 645 813 883 889 898 784 643 478 460 593 654 929 1330 1279 1260 939 882 898 633 285 92 0 2 2 0 0 0
857 816 513 197 72 66 117 157 244 164 143 82 170 170 99 52 27 105 190 294 605 1131 1107 1166 837 660 297 81 0 0 0 0 0
237 218 94 33 6 2 0 0 0 31 45 68 88 57 11 0 0 5 153 53 16 56 74 181 507 762 767 531 71 0 0 0 0
10 58 0 0 0 0 0 0 0 0 0 0 0 0 0 0 0 0 34 0 0 0 0 0 0 126 593 1003 697 55 0 0 0
0 0 0 0 0 0 0 0 0 0 0 0 0 0 0 0 0 0 0 0 0 0 0 0 0 0 0 29 330 1136 1480 887 0
0 0 0 0 0 0 0 0 0 0 0 0 0 0 0 0 0 0 0 0 0 0 0 0 0 0 0 0 0 17 304 548 474
0 0 0 0 0 0 0 0 0 0 0 0 0 0 0 0 0 0 0 0 0 0 0 0 0 0 0 0 0 0 0 15 93
0 0 0 0 0 0 0 0 0 0 0 0 0 0 0 0 0 0 0 0 0 0 0 0 0 0 0 0 0 0 0 0 0
0 0 0 0 0 0 0 0 0 0 0 0 0 0 0 0 0 0 0 0 0 0 0 0 0 0 0 0 0 0 0 0 0
CIN
-386 -437 -312 -400 -527 -74 -468 -500 -421 -415 -544 -409 -356 -372 -313 -278 -297 -326 -301 -290 -228 -203 -228 -272 -179 -318 -61 -0 -0 -0 -32 -63 -94
-319 -403 -411 -666 -818 -698 -573 -488 -468 -417 -346 -337 -505 -485 -300 -287 -349 -272 -216 -247 -246 -230 -267 -456 -493 -0 -0 -0 -0 -0 -0 -231 -86
-313 -396 -399 -620 -669 -684 -667 -648 -650 -546 -393 -327 -320 -620 -642 -587 -260 -360 -324 -190 -170 -179 -192 -280 -665 -0 -305 -301 -0 -0 -0 -0 -179
-318 -246 -415 -697 -788 -753 -700 -676 -658 -622 -766 -513 -626 -0 -82 -783 -143 -318 -357 -325 -276 -180 -143 -291 -1 -153 -439 -210 -0 -0 -0 -313 -151
-289 -405 -590 -714 -814 -751 -645 -588 -573 -588 -740 -631 -660 -0 -779 -598 -194 -139 -230 -282 -299 -304 -198 -200 -572 -593 -546 -0 -0 -0 -207 -242 -154
-303 -496 -635 -740 -798 -873 -842 -682 -632 -574 -0 -0 -0 -0 -0 -0 -467 -78 -141 -163 -199 -162 -141 -168 -399 -538 -459 -110 -0 -181 -313 -353 -236
-350 -485 -605 -694 -737 -808 -880 -840 -675 -753 -873 -0 -0 -32 -846 -676 -270 -90 -120 -125 -130 -125 -119 -148 -273 -396 -447 -536 -541 -337 -426 -357 -314
-390 -413 -563 -593 -598 -713 -911 -966 -1014 -1039 -936 -724 -779 -777 -840 -638 -365 -151 -135 -127 -148 -131 -172 -271 -348 -395 -531 -650 -560 -572 -537 -449 -396
-355 -373 -389 -433 -481 -588 -722 -821 -769 -601 -614 -553 -435 -279 -230 -218 -257 -206 -200 -174 -192 -200 -241 -358 -606 -660 -574 -597 -676 -604 -4 -427 -413
-303 -275 -262 -265 -307 -341 -375 -376 -381 -321 -311 -278 -267 -201 -135 -110 -128 -155 -200 -222 -232 -266 -317 -322 -414 -568 -654 -686 -705 -635 -529 -457 -566
-358 -360 -345 -367 -414 -406 -404 -345 -249 -287 -280 -221 -204 -195 -177 -164 -129 -93 -194 -190 -162 -122 -206 -252 -300 -319 -355 -398 -472 -523 -628 -0 -0
-601 -502 -606 -675 -694 -619 -471 -412 -397 -399 -377 -385 -370 -377 -379 -361 -353 -280 -192 -193 -195 -258 -276 -293 -384 -541 -599 -0 -117 -122 -0 -0 -0
-605 -625 -705 -823 -912 -899 -760 -688 -556 -531 -547 -577 -489 -451 -463 -485 -512 -419 -392 -374 -268 -169 -182 -188 -271 -367 -492 -578 -0 -0 -0 -0 -0
-783 -770 -817 -953 -628 -593 -0 -0 -0 -429 -618 -525 -535 -559 -393 -0 -0 -329 -342 -411 -469 -438 -436 -398 -308 -253 -277 -366 -543 -0 -0 -0 -0
-762 -843 -0 -0 -0 -0 -0 -0 -0 -0 -0 -0 -0 -0 -0 -0 -0 -0 -293 -0 -0 -0 -0 -0 -0 -373 -233 -177 -279 -310 -0 -0 -0
-0 -0 -0 -0 -0 -0 -0 -0 -0 -0 -0 -0 -0 -0 -0 -0 -0 -0 -0 -0 -0 -0 -0 -0 -0 -0 -0 -453 -249 -86 -67 -205 -0
-0 -0 -0 -0 -0 -0 -0 -0 -0 -0 -0 -0 -0 -0 -0 -0 -0 -0 -0 -0 -0 -0 -0 -0 -0 -0 -0 -0 -0 -369 -218 -136 -171
-0 -0 -0 -0 -0 -0 -0 -0 -0 -0 -0 -0 -0 -0 -0 -0 -0 -0 -0 -0 -0 -0 -0 -0 -0 -0 -0 -0 -0 -0 -0 -182 -117
-0 -0 -0 -0 -0 -0 -0 -0 -0 -0 -0 -0 -0 -0 -0 -0 -0 -0 -0 -0 -0 -0 -0 -0 -0 -0 -0 -0 -0 -0 -0 -0 -0
-0 -0 -0 -0 -0 -0 -0 -0 -0 -0 -0 -0 -0 -0 -0 -0 -0 -0 -0 -0 -0 -0 -0 -0 -0 -0 -0 -0 -0 -0 -0 -0 -0
Wind_Speed
8 10 18 14 9 7 9 13 11 11 10 7 2 5 7 9 8 7 8 8 6 4 5 5 4 9 9 7 5 5 8 8 7
9 10 14 6 7 10 11 13 12 10 8 11 12 10 9 7 9 9 8 5 4 5 4 2 6 6 7 7 4 5 4 5 10
7 8 11 7 8 7 8 11 10 14 15 14 15 7 12 12 13 11 7 6 8 7 4 7 8 7 7 6 4 3 3 4 8
8 8 6 3 7 7 11 12 13 14 12 12 12 9 16 9 16 11 10 10 9 5 4 8 9 9 9 6 1 2 4 3 8
4 2 3 5 6 7 8 10 6 5 12 12 10 9 9 15 16 14 8 9 8 6 9 6 10 9 6 5 6 10 9 4 9
6 4 4 5 6 6 5 6 7 6 11 9 8 9 8 9 10 13 12 10 7 7 7 6 8 8 7 7 8 5 6 5 9
7 6 7 4 4 6 6 7 8 7 5 2 2 2 2 7 13 13 11 9 7 7 7 6 8 9 10 9 7 6 7 8 12
8 7 7 8 8 7 7 5 6 6 6 2 5 6 8 13 13 11 7 6 6 7 6 5 7 7 7 6 5 6 6 9 11
14 12 10 8 7 7 8 8 7 6 6 6 4 6 7 7 7 6 3 5 5 5 5 6 6 7 7 7 6 9 11 9 7
15 14 12 10 8 7 6 7 7 7 6 5 5 6 3 1 4 1 2 4 4 6 6 5 6 6 6 7 8 9 11 9 5
10 9 7 6 5 4 1 1 1 4 4 3 4 5 5 6 4 3 2 2 3 2 3 5 5 6 6 5 7 9 9 6 4
7 8 7 7 6 6 6 7 7 8 7 7 7 7 6 6 7 6 5 5 5 5 4 4 5 4 6 7 8 10 8 4 3
9 9 9 9 8 7 9 6 8 8 6 5 6 5 4 4 5 5 5 4 4 3 3 4 4 6 6 8 10 8 7 7 3
8 10 10 8 7 8 8 7 7 8 6 5 2 2 2 2 1 1 2 3 2 3 4 5 5 5 6 7 7 10 10 8 5
9 10 8 7 8 7 5 6 8 7 6 4 4 3 2 2 3 3 3 3 3 4 5 6 6 5 6 5 7 11 11 13 14
6 7 7 5 7 7 5 6 7 7 6 5 4 2 3 3 3 4 4 4 5 4 5 4 5 5 6 7 5 5 12 14 14
5 5 6 5 7 5 3 2 2 2 3 4 3 4 5 5 5 7 5 4 4 4 5 4 5 6 6 7 7 6 4 5 6
8 6 4 5 5 4 4 3 3 2 4 3 5 5 6 6 5 6 7 6 6 6 7 7 6 6 6 6 8 8 9 9 6
8 8 4 3 4 3 2 0 2 3 2 1 1 4 4 4 4 5 5 6 8 11 15 15 15 16 13 10 13 15 16 16 15
4 2 4 4 4 3 2 2 1 2 2 2 4 5 6 4 5 5 6 7 7 9 9 15 18 19 19 17 19 16 16 16 13
Wind_Direction
137 187 214 198 207 169 179 145 179 188 178 169 87 32 317 303 266 235 233 223 214 211 210 216 16 65 82 58 38 359 341 301 257
195 214 236 137 182 198 167 154 169 160 94 78 60 21 336 273 277 265 253 249 239 213 204 124 126 134 148 163 207 240 241 283 286
234 263 270 155 193 164 125 134 121 112 127 166 180 194 273 278 264 250 258 240 228 218 182 146 162 180 195 208 282 97 198 303 286
207 229 270 305 147 123 129 134 148 169 157 144 161 172 260 272 266 241 229 240 256 242 171 165 174 198 212 215 41 260 233 210 274
180 321 14 62 91 116 147 158 187 171 148 186 189 188 194 230 257 249 225 227 245 222 235 166 186 211 209 189 181 216 217 158 245
166 167 100 105 107 127 164 200 215 195 161 178 167 171 197 236 267 246 239 233 224 215 221 171 200 208 229 211 234 208 284 290 276
177 165 157 162 158 194 201 214 232 221 143 144 222 92 292 258 252 235 229 232 225 217 221 184 203 212 222 216 223 206 255 269 272
162 168 179 185 174 198 214 254 294 311 311 265 177 226 223 244 247 242 228 221 217 221 206 193 215 227 231 229 205 203 221 261 274
171 177 187 195 195 187 202 211 224 246 255 255 244 252 229 224 203 212 217 233 214 203 206 221 208 225 226 245 239 222 218 220 241
169 175 179 184 193 197 205 215 205 211 205 223 215 221 229 18 81 85 239 228 199 212 226 233 234 237 226 242 254 255 253 254 228
160 152 145 138 139 140 198 235 129 86 84 77 90 24 30 19 346 347 341 285 265 218 202 224 231 241 237 249 261 247 252 240 233
137 138 133 126 130 119 93 75 69 78 59 60 58 57 49 42 44 35 26 9 318 306 286 259 249 246 262 250 259 221 243 199 241
121 127 139 139 128 123 111 123 124 107 102 79 63 56 52 40 35 33 12 354 344 301 286 278 275 271 250 262 275 268 235 190 209
133 135 136 127 120 121 132 135 111 100 108 97 128 80 58 51 36 303 241 300 301 314 319 317 308 286 275 266 254 271 261 207 214
137 140 139 131 123 124 134 125 110 120 122 180 180 184 220 268 275 284 303 304 293 305 310 305 293 276 279 258 258 247 252 243 216
147 145 134 117 127 131 141 144 136 139 198 195 206 230 289 276 253 243 246 246 271 290 287 281 287 288 289 288 276 258 250 254 251
123 126 126 133 131 134 148 170 168 190 207 211 223 249 259 267 272 280 274 251 236 238 252 253 250 266 273 275 279 276 265 247 255
144 153 170 174 161 175 220 195 259 302 309 315 292 298 297 296 287 281 281 260 245 240 234 217 248 244 240 256 269 267 251 259 268
161 185 177 178 214 212 236 353 325 327 349 47 287 292 286 272 274 275 268 273 283 251 245 256 247 250 246 260 248 269 268 268 267
134 159 151 159 173 160 182 163 252 268 278 278 283 271 283 277 268 265 268 270 266 274 270 247 252 256 260 247 251 257 258 259 267